Flag for U.S.A. Weather past 2 weeks in Salt Lake City, Utah, U.S.A.

Now
70 °F

Passing clouds.


Feels Like: 76 °F
Forecast: 61 / 81 °F
Wind: 8 mph from Southeast

Location: Salt Lake City International Airport

Current Time: Sep 23, 2014 at 10:55:00 AM

Latest Report: Sep 23, 2014 at 9:53 AM


Visibility: 10 mi

Pressure: 30.03 "Hg

Humidity: 57%

Dew point: 54 °F

Location of Salt Lake CityLocation

Historic Weather in Salt Lake City — Graph

°F

Salt Lake City temperature yesterday

Maximum temperature yesterday: 76 °F (at 5:53 PM)
Minimum temperature yesterday: 61 °F (at 12:53 AM)
Average temperature yesterday: 68 °F

Past Weeks' High & Low Weather Summary

 TemperatureHumidityPressure
High94 °F (Sep 17, 3:53 PM)96% (Sep 9, 5:53 AM)30.20 "Hg (Sep 9, 5:53 AM)
Low46 °F (Sep 12, 5:53 AM)12% (Sep 17, 3:53 PM)29.57 "Hg (Sep 18, 6:53 PM)
Average70 °F46%29.91 "Hg
* Reported Sep 8 8:53 AM — Sep 23 8:53 AM, Salt Lake City, Weather by CustomWeather, © 2014

Note: Actual official high and low records may vary slightly from our data, if they occured in-between our weather recording intervals... More about our weather records

Advertising

Salt Lake City weather history for previous 24 hours

 ConditionsComfort  
Time TempWeatherWind HumidityBarometerVisibility
8:53 AM
Sep 23
65 °FPassing clouds.9 mph70%30.03 "Hg10 mi
7:53 AM61 °FPassing clouds.7 mph75%30.02 "Hg10 mi
6:53 AM59 °FPassing clouds.6 mph78%30.01 "Hg10 mi
5:53 AM61 °FClear.9 mph75%29.98 "Hg10 mi
4:53 AM60 °FPassing clouds.6 mph80%29.98 "Hg10 mi
3:53 AM62 °FPassing clouds.6 mph73%29.98 "Hg10 mi
2:53 AM61 °FPassing clouds.6 mph72%29.98 "Hg10 mi
1:53 AM64 °FPassing clouds.6 mph65%29.98 "Hg10 mi
12:53 AM66 °FPassing clouds.3 mph61%29.97 "Hg10 mi
11:53 PM
Sep 22
67 °FPassing clouds.6 mph59%29.97 "Hg10 mi
10:53 PM67 °FPassing clouds.6 mph59%29.97 "Hg10 mi
9:53 PM68 °FPassing clouds.6 mph59%29.98 "Hg10 mi
8:53 PM69 °FPassing clouds.No wind66%29.97 "Hg10 mi
7:53 PM71 °FPartly sunny.6 mph51%29.97 "Hg10 mi
6:53 PM73 °FPartly sunny.No wind46%29.96 "Hg10 mi
5:53 PM76 °FScattered clouds.3 mph39%29.96 "Hg10 mi
4:53 PM75 °FBroken clouds.3 mph43%29.97 "Hg10 mi
3:53 PM74 °FBroken clouds.7 mph48%29.97 "Hg9 mi
2:53 PM73 °FBroken clouds.3 mph44%29.99 "Hg10 mi
1:53 PM73 °FBroken clouds.No wind43%30.00 "Hg10 mi
12:53 PM75 °FScattered clouds.7 mph40%30.01 "Hg10 mi
11:53 AM71 °FPassing clouds.5 mph53%30.03 "Hg10 mi
10:53 AM68 °FPassing clouds.5 mph61%30.05 "Hg10 mi
Weather by CustomWeather, © 2014

See weather overviewHow to use our weather pages